TimeCST,TemperatureF,Dew PointF,Humidity,Sea Level PressureIn,VisibilityMPH,Wind Direction,Wind SpeedMPH,Gust SpeedMPH,PrecipitationIn,Events,Conditions,WindDirDegrees,DateUTC
12:33 AM,32.0,26.6,80,30.27,10.0,NW,6.9,-,N/A,,Overcast,310,2013-03-07 06:33:00
12:53 AM,30.9,27.0,85,30.30,10.0,NW,4.6,-,N/A,,Overcast,320,2013-03-07 06:53:00
1:36 AM,30.2,26.6,86,30.29,10.0,WNW,8.1,-,N/A,,Overcast,300,2013-03-07 07:36:00
1:53 AM,30.9,27.0,85,30.32,10.0,WNW,6.9,-,N/A,,Overcast,300,2013-03-07 07:53:00
2:19 AM,30.2,26.6,86,30.30,10.0,WNW,8.1,-,N/A,,Overcast,290,2013-03-07 08:19:00
2:45 AM,30.2,26.6,86,30.30,10.0,WNW,6.9,-,N/A,,Overcast,300,2013-03-07 08:45:00
2:53 AM,30.9,27.0,85,30.32,10.0,WNW,6.9,-,N/A,,Overcast,290,2013-03-07 08:53:00
3:05 AM,30.2,26.6,86,30.31,10.0,WNW,8.1,-,N/A,,Overcast,290,2013-03-07 09:05:00
3:21 AM,30.2,26.6,86,30.31,10.0,WNW,6.9,-,N/A,,Overcast,290,2013-03-07 09:21:00
3:42 AM,30.2,26.6,86,30.31,10.0,WNW,6.9,-,N/A,,Overcast,300,2013-03-07 09:42:00
3:53 AM,30.9,27.0,85,30.35,10.0,WNW,10.4,-,N/A,,Overcast,290,2013-03-07 09:53:00
4:53 AM,30.9,26.1,82,30.35,10.0,WNW,8.1,-,N/A,,Overcast,300,2013-03-07 10:53:00
5:53 AM,30.9,26.1,82,30.35,10.0,WNW,6.9,-,N/A,,Overcast,290,2013-03-07 11:53:00
6:53 AM,30.9,26.1,82,30.38,10.0,NW,5.8,-,N/A,,Overcast,310,2013-03-07 12:53:00
7:53 AM,32.0,26.1,79,30.39,10.0,NW,6.9,-,N/A,,Overcast,310,2013-03-07 13:53:00
8:53 AM,33.1,27.0,78,30.40,10.0,WNW,8.1,-,N/A,,Overcast,300,2013-03-07 14:53:00
9:53 AM,36.0,26.1,67,30.40,10.0,Variable,4.6,-,N/A,,Overcast,0,2013-03-07 15:53:00
10:53 AM,36.0,24.1,62,30.41,10.0,NW,6.9,-,N/A,,Overcast,320,2013-03-07 16:53:00
11:04 AM,35.6,24.8,65,30.38,10.0,WNW,5.8,-,N/A,,Overcast,300,2013-03-07 17:04:00
11:53 AM,36.0,24.1,62,30.40,10.0,NNW,3.5,-,N/A,,Overcast,340,2013-03-07 17:53:00
12:53 PM,37.0,23.0,57,30.40,10.0,NW,5.8,-,N/A,,Overcast,320,2013-03-07 18:53:00
1:53 PM,37.0,23.0,57,30.39,10.0,North,6.9,-,N/A,,Overcast,350,2013-03-07 19:53:00
2:53 PM,36.0,24.1,62,30.39,10.0,North,4.6,-,N/A,,Mostly Cloudy,10,2013-03-07 20:53:00
3:53 PM,35.1,25.0,67,30.40,10.0,ENE,4.6,-,N/A,,Overcast,60,2013-03-07 21:53:00
4:53 PM,35.1,24.1,64,30.41,10.0,ENE,4.6,-,N/A,,Overcast,60,2013-03-07 22:53:00
5:53 PM,34.0,23.0,64,30.42,10.0,Calm,Calm,-,N/A,,Overcast,0,2013-03-07 23:53:00
6:53 PM,33.1,25.0,72,30.43,10.0,Calm,Calm,-,N/A,,Overcast,0,2013-03-08 00:53:00
7:53 PM,30.9,23.0,72,30.43,10.0,Calm,Calm,-,N/A,,Overcast,0,2013-03-08 01:53:00
8:53 PM,30.0,21.9,72,30.43,10.0,ENE,3.5,-,N/A,,Clear,70,2013-03-08 02:53:00
9:53 PM,27.0,21.0,78,30.43,10.0,NNE,3.5,-,N/A,,Scattered Clouds,20,2013-03-08 03:53:00
10:53 PM,28.0,21.9,78,30.44,10.0,NE,3.5,-,N/A,,Overcast,50,2013-03-08 04:53:00
11:53 PM,26.1,23.0,88,30.44,10.0,NE,4.6,-,N/A,,Partly Cloudy,40,2013-03-08 05:53:00